EW2672 Weather Reports


Display with metric or nautical units.
time (UTC)temp
F
wind
direction
speed
MPH
gust
MPH
rain 1hr
in
rain 24hr
in
rain mn
in
humidity
%
barometer
mb
20210226004546 50 0.0 3.0 0.00 0.00 0.00 96 1017.3
20210226003941 50 0.0 3.0 0.00 0.00 0.00 95 1017.2
20210226003342 50 38 1.0 5.0 0.00 0.00 0.00 95 1017.6
20210226002857 50 0.0 3.0 0.00 0.00 0.00 95 1017.6
20210226002131 50 55 1.0 3.0 0.00 0.00 0.00 95 1017.5
20210226001531 50 0.0 3.0 0.00 0.00 0.00 94 1017.6
20210226000927 50 0.0 3.0 0.00 0.00 0.00 94 1017.6
20210226000340 51 1.0 6.0 0.00 0.00 0.00 94 1017.7
20210225235719 51 328 1.0 6.0 0.00 0.00 0.00 93 1018.0
20210225235120 51 0.0 3.0 0.00 0.00 0.00 93 1017.9
20210225234534 51 0.0 2.0 0.00 0.00 0.00 93 1017.8
20210225233912 51 46 1.0 2.0 0.00 0.00 0.00 92 1017.5
20210225233315 51 0.0 3.0 0.00 0.00 0.00 92 1017.5
20210225232929 51 0.0 1.0 0.00 0.00 0.00 92 1017.6
20210225232102 51 0.0 2.0 0.00 0.00 0.00 91 1017.5
20210225231500 51 0.0 2.0 0.00 0.00 0.00 91 1017.5
20210225230900 51 0.0 2.0 0.00 0.00 0.00 91 1017.5
20210225230253 51 0.0 3.0 0.00 0.00 0.00 91 1017.5
20210225225649 51 49 1.0 3.0 0.00 0.00 0.00 90 1017.5
20210225225049 51 0.0 2.0 0.00 0.00 0.00 90 1017.6
20210225224447 52 0.0 2.0 0.00 0.00 0.00 90 1017.5
20210225223840 52 0.0 4.0 0.00 0.00 0.00 90 1017.6
20210225223335 52 82 1.0 3.0 0.00 0.00 0.00 90 1017.7
20210225223036 52 0.0 1.0 0.00 0.00 0.00 90 1017.7
20210225222036 52 0.0 2.0 0.00 0.00 0.00 89 1017.3
20210225221431 52 0.0 3.0 0.00 0.00 0.00 88 1017.3
20210225220828 53 36 1.0 3.0 0.00 0.00 0.00 87 1017.4
20210225220235 53 0.0 2.0 0.00 0.00 0.00 88 1017.5
20210225215623 53 0.0 2.0 0.00 0.00 0.00 88 1017.3
20210225215021 53 0.0 2.0 0.00 0.00 0.00 88 1017.6
20210225214419 53 0.0 1.0 0.00 0.00 0.00 88 1017.7
20210225213813 53 0.0 2.0 0.00 0.00 0.00 88 1017.7
20210225213246 52 0.0 2.0 0.00 0.00 0.00 88 1017.9
20210225212940 52 0.0 3.0 0.00 0.00 0.00 88 1017.7
20210225212001 52 0.0 3.0 0.00 0.00 0.00 88 1017.9
20210225211400 52 89 1.0 3.0 0.00 0.00 0.00 87 1018.0
20210225210755 52 0.0 2.0 0.00 0.00 0.00 88 1018.0
20210225210152 52 0.0 2.0 0.00 0.00 0.00 88 1018.2
20210225205550 52 0.0 3.0 0.00 0.00 0.00 88 1018.4
20210225204945 52 96 1.0 3.0 0.00 0.00 0.00 89 1018.5
20210225204349 52 0.0 2.0 0.00 0.00 0.00 89 1018.6
20210225203739 51 0.0 3.0 0.00 0.00 0.00 89 1018.6
20210225203325 51 101 1.0 3.0 0.00 0.00 0.00 90 1018.7
20210225202701 51 0.0 3.0 0.00 0.00 0.00 90 1018.9
20210225201932 51 0.0 4.0 0.00 0.00 0.00 90 1019.1
20210225201327 51 1.0 4.0 0.00 0.00 0.00 90 1019.2
20210225200725 51 0.0 2.0 0.00 0.00 0.00 90 1019.1
20210225200122 51 0.0 1.0 0.00 0.00 0.00 89 1019.3
20210225195521 51 0.0 1.0 0.00 0.00 0.00 89 1019.5
20210225195029 51 0.0 2.0 0.00 0.00 0.00 89 1019.8
20210225194316 51 0.0 3.0 0.00 0.00 0.00 88 1019.6
20210225193709 52 0.0 3.0 0.00 0.00 0.00 88 1019.6
20210225193120 52 0.0 2.0 0.00 0.00 0.00 87 1020.0
20210225192530 52 0.0 4.0 0.00 0.00 0.00 87 1020.0
20210225191903 52 40 1.0 4.0 0.00 0.00 0.00 86 1020.2
20210225191301 51 0.0 2.0 0.00 0.00 0.00 85 1020.6
20210225190652 51 1.0 4.0 0.00 0.00 0.00 85 1020.8
20210225190053 51 335 1.0 4.0 0.00 0.00 0.00 85 1020.9
20210225185442 51 0.0 4.0 0.00 0.00 0.00 85 1020.8
20210225184843 51 93 1.0 5.0 0.00 0.00 0.00 85 1020.7
20210225184240 51 50 1.0 5.0 0.00 0.00 0.00 85 1020.8
20210225183635 51 0.0 4.0 0.00 0.00 0.00 85 1021.0
20210225183101 51 360 1.0 4.0 0.00 0.00 0.00 86 1021.1
20210225182724 51 1.0 4.0 0.00 0.00 0.00 85 1021.3
20210225181825 51 26 1.0 4.0 0.00 0.00 0.00 85 1021.5
20210225181223 51 0.0 4.0 0.00 0.00 0.00 85 1021.7
20210225180619 51 0.0 6.0 0.00 0.00 0.00 84 1021.7
20210225180027 51 52 1.0 3.0 0.00 0.00 0.00 83 1021.7
20210225175412 51 0.0 6.0 0.00 0.00 0.00 82 1021.7
20210225174835 52 1.0 4.0 0.00 0.00 0.00 81 1021.7
20210225174207 53 0.0 4.0 0.00 0.00 0.00 79 1021.9
20210225173610 53 67 1.0 4.0 0.00 0.00 0.00 77 1022.0
20210225173020 54 0.0 4.0 0.00 0.00 0.00 74 1022.2
20210225172411 54 102 1.0 4.0 0.00 0.00 0.00 71 1022.2
20210225171754 55 0.0 4.0 0.00 0.00 0.00 66 1022.2
20210225171151 55 0.0 3.0 0.00 0.00 0.00 63 1022.2
20210225170549 55 0.0 2.0 0.00 0.00 0.00 63 1022.1
20210225165945 55 0.0 2.0 0.00 0.00 0.00 63 1022.0
20210225165349 54 0.0 3.0 0.00 0.00 0.00 63 1021.8
20210225164747 54 0.0 2.0 0.00 0.00 0.00 63 1021.8
20210225164138 54 0.0 2.0 0.00 0.00 0.00 62 1021.7
20210225163533 54 31 1.0 4.0 0.00 0.00 0.00 63 1021.7
20210225162934 54 22 1.0 4.0 0.00 0.00 0.00 63 1021.5
20210225162328 54 0.0 3.0 0.00 0.00 0.00 62 1021.6
20210225161724 54 22 1.0 3.0 0.00 0.00 0.00 63 1021.8
20210225161120 54 0.0 6.0 0.00 0.00 0.00 63 1021.7
20210225160521 54 1.0 6.0 0.00 0.00 0.00 63 1021.8
20210225155915 54 1 1.0 6.0 0.00 0.00 0.00 63 1021.8
20210225155312 54 30 1.0 3.0 0.00 0.00 0.00 63 1022.0
20210225154709 54 51 1.0 3.0 0.00 0.00 0.00 62 1021.9
20210225154105 54 23 1.0 6.0 0.00 0.00 0.00 63 1021.9
20210225153520 54 89 1.0 6.0 0.00 0.00 0.00 62 1021.8
20210225152928 54 0.0 2.0 0.00 0.00 0.00 63 1021.6
20210225152256 54 0.0 3.0 0.00 0.00 0.00 63 1021.8
20210225151656 53 0.0 3.0 0.00 0.00 0.00 63 1022.1
20210225151051 53 0.0 2.0 0.00 0.00 0.00 63 1022.1
20210225150448 53 0.0 3.0 0.00 0.00 0.00 63 1022.2
20210225145845 53 0.0 3.0 0.00 0.00 0.00 62 1022.1
20210225145242 53 0.0 3.0 0.00 0.00 0.00 62 1022.0
20210225144640 53 0.0 3.0 0.00 0.00 0.00 62 1022.2
20210225144035 53 0.0 3.0 0.00 0.00 0.00 62 1022.0
20210225143432 53 0.0 4.0 0.00 0.00 0.00 62 1021.7
20210225142927 53 0.0 3.0 0.00 0.00 0.00 62 1021.4
20210225142227 53 0.0 5.0 0.00 0.00 0.00 62 1021.3
20210225141623 53 1.0 5.0 0.00 0.00 0.00 62 1021.2
20210225141035 53 63 1.0 5.0 0.00 0.00 0.00 62 1020.9
20210225140417 53 21 1.0 5.0 0.00 0.00 0.00 62 1020.9
20210225135819 53 0.0 2.0 0.00 0.00 0.00 62 1020.9
20210225135211 53 0.0 3.0 0.00 0.00 0.00 62 1021.0
20210225134610 53 1.0 3.0 0.00 0.00 0.00 62 1021.1
20210225134022 53 0.0 2.0 0.00 0.00 0.00 62 1021.0
20210225133402 53 0.0 3.0 0.00 0.00 0.00 62 1021.1
20210225132943 53 0.0 2.0 0.00 0.00 0.00 62 1021.1
20210225132156 53 0.0 2.0 0.00 0.00 0.00 62 1021.1
20210225131618 53 0.0 3.0 0.00 0.00 0.00 62 1021.0
20210225130958 53 40 1.0 3.0 0.00 0.00 0.00 62 1020.8
20210225130354 53 69 1.0 5.0 0.00 0.00 0.00 62 1020.4
20210225125745 53 0.0 2.0 0.00 0.00 0.00 62 1020.6
20210225125144 53 0.0 4.0 0.00 0.00 0.00 62 1020.8
20210225124545 53 0.0 4.0 0.00 0.00 0.00 62 1020.8
20210225123935 53 0.0 4.0 0.00 0.00 0.00 61 1020.6
20210225123331 54 0.0 3.0 0.00 0.00 0.00 61 1020.6
20210225122917 54 0.0 2.0 0.00 0.00 0.00 61 1020.6
20210225122128 54 0.0 2.0 0.00 0.00 0.00 61 1020.8
20210225121536 54 0.0 2.0 0.00 0.00 0.00 62 1020.9
20210225120919 54 0.0 3.0 0.00 0.00 0.00 61 1020.8
20210225120317 54 0.0 3.0 0.00 0.00 0.00 61 1020.5
20210225115713 54 0.0 4.0 0.00 0.00 0.00 62 1020.6
20210225115204 54 0.0 4.0 0.00 0.00 0.00 62 1020.7
20210225114608 54 0.0 4.0 0.00 0.00 0.00 63 1020.6
20210225113908 54 89 1.0 4.0 0.00 0.00 0.00 63 1020.4
20210225113301 54 0.0 3.0 0.00 0.00 0.00 63 1020.4
20210225112938 54 0.0 2.0 0.00 0.00 0.00 62 1020.2
20210225112055 54 43 1.0 4.0 0.00 0.00 0.00 62 1020.2
20210225111452 54 71 1.0 4.0 0.00 0.00 0.00 63 1020.2
20210225110859 55 69 1.0 5.0 0.00 0.00 0.00 62 1020.3
20210225110249 55 1.0 3.0 0.00 0.00 0.00 62 1020.1
20210225105643 55 113 1.0 3.0 0.00 0.00 0.00 62 1020.0
20210225105043 55 0.0 4.0 0.00 0.00 0.00 62 1020.1
20210225104438 55 65 1.0 4.0 0.00 0.00 0.00 62 1020.3
20210225103835 55 79 1.0 3.0 0.00 0.00 0.00 62 1020.4
20210225103233 55 50 1.0 3.0 0.00 0.00 0.00 63 1020.4
20210225102918 56 0.0 3.0 0.00 0.00 0.00 63 1020.3
20210225102025 56 0.0 3.0 0.00 0.00 0.00 63 1020.1
20210225101421 56 1.0 3.0 0.00 0.00 0.00 64 1020.0
20210225100820 56 1.0 3.0 0.00 0.00 0.00 64 1019.9
20210225100215 56 0.0 2.0 0.00 0.00 0.00 65 1020.0
20210225095612 56 0.0 2.0 0.00 0.00 0.00 65 1020.1
20210225095133 57 0.0 2.0 0.00 0.00 0.00 65 1020.2
20210225094407 57 0.0 2.0 0.00 0.00 0.00 65 1020.1
20210225093803 57 1.0 4.0 0.00 0.00 0.00 65 1020.1
20210225093200 57 0.0 4.0 0.00 0.00 0.00 65 1020.1
20210225092741 57 0.0 2.0 0.00 0.00 0.00 65 1020.1
20210225091954 57 0.0 3.0 0.00 0.00 0.00 66 1020.1
20210225091351 57 50 1.0 3.0 0.00 0.00 0.00 66 1020.2
20210225090752 57 0.0 2.0 0.00 0.00 0.00 65 1020.3
20210225090145 57 0.0 3.0 0.00 0.00 0.00 65 1020.4
20210225085543 57 47 1.0 4.0 0.00 0.00 0.00 65 1020.4
20210225084941 57 308 1.0 4.0 0.00 0.00 0.00 66 1020.5
20210225084336 57 0.0 3.0 0.00 0.00 0.00 65 1020.5
20210225083733 57 0.0 3.0 0.00 0.00 0.00 65 1020.4
20210225083152 57 0.0 3.0 0.00 0.00 0.00 65 1020.4
20210225082825 57 83 1.0 4.0 0.00 0.00 0.00 65 1020.4
20210225081934 57 1.0 4.0 0.00 0.00 0.00 65 1020.4
20210225081406 57 1.0 5.0 0.00 0.00 0.00 64 1020.2
20210225080730 57 19 1.0 5.0 0.00 0.00 0.00 64 1020.4
20210225080115 57 30 1.0 6.0 0.00 0.00 0.00 64 1020.3
20210225075521 57 0.0 5.0 0.00 0.00 0.00 64 1020.1
20210225074914 57 52 1.0 2.0 0.00 0.00 0.00 64 1020.2
20210225074306 57 0.0 2.0 0.00 0.00 0.00 64 1020.3
20210225073710 57 0.0 3.0 0.00 0.00 0.00 64 1020.2
20210225073151 57 54 1.0 3.0 0.00 0.00 0.00 64 1020.3
20210225072624 57 0.0 2.0 0.00 0.00 0.00 64 1020.0
20210225071854 57 0.0 1.0 0.00 0.00 0.00 64 1020.2
20210225071251 57 0.0 1.0 0.00 0.00 0.00 64 1020.1
20210225070649 58 0.0 1.0 0.00 0.00 0.00 64 1020.1
20210225070045 58 0.0 1.0 0.00 0.00 0.00 63 1020.2
20210225065454 58 0.0 0.0 0.00 0.00 0.00 64 1020.2
20210225064838 58 0.0 0.0 0.00 0.00 0.00 64 1020.3
20210225064244 58 0.0 0.0 0.00 0.00 0.00 64 1020.5
20210225063635 58 0.0 0.0 0.00 0.00 0.00 64 1020.6
20210225063118 58 0.0 0.0 0.00 0.00 0.00 65 1020.6
20210225062627 58 0.0 0.0 0.00 0.00 0.00 65 1020.5
20210225061823 58 0.0 0.0 0.00 0.00 0.00 65 1020.5
20210225061221 57 0.0 0.0 0.00 0.00 0.00 65 1020.4
20210225060619 57 0.0 0.0 0.00 0.00 0.00 65 1020.3
20210225060039 57 0.0 0.0 0.00 0.00 0.00 66 1020.2
20210225055414 57 0.0 0.0 0.00 0.00 0.00 67 1020.4
20210225054925 56 0.0 0.0 0.00 0.00 0.00 66 1020.4
20210225054205 56 0.0 0.0 0.00 0.00 0.00 67 1020.4
20210225053602 56 0.0 0.0 0.00 0.00 0.00 67 1020.4
20210225052959 56 0.0 0.0 0.00 0.00 0.00 67 1020.5
20210225052434 56 0.0 0.0 0.00 0.00 0.00 66 1020.3
20210225051753 57 0.0 0.0 0.00 0.00 0.00 65 1020.3
20210225051151 57 0.0 0.0 0.00 0.00 0.00 63 1020.3
20210225050558 57 0.0 0.0 0.00 0.00 0.00 62 1020.3
20210225045944 58 0.0 0.0 0.00 0.00 0.00 62 1020.3
20210225045341 58 0.0 0.0 0.00 0.00 0.00 62 1020.3
20210225044738 58 0.0 0.0 0.00 0.00 0.00 62 1020.3
20210225044135 59 0.0 0.0 0.00 0.00 0.00 61 1020.3
20210225043532 59 0.0 0.0 0.00 0.00 0.00 61 1020.1
20210225042943 59 0.0 1.0 0.00 0.00 0.00 60 1020.1
20210225042328 59 0.0 1.0 0.00 0.00 0.00 59 1020.1
20210225041724 60 0.0 2.0 0.00 0.00 0.00 59 1020.0
20210225041123 60 0.0 2.0 0.00 0.00 0.00 59 1019.9
20210225040533 60 0.0 1.0 0.00 0.00 0.00 59 1019.9
20210225035913 60 0.0 1.0 0.00 0.00 0.00 59 1019.8
20210225035310 61 0.0 1.0 0.00 0.00 0.00 59 1019.7
20210225034720 61 0.0 4.0 0.00 0.00 0.00 58 1019.6
20210225034108 61 0.0 2.0 0.00 0.00 0.00 57 1019.5
20210225033522 61 0.0 2.0 0.00 0.00 0.00 57 1019.3
20210225033159 62 0.0 1.0 0.00 0.00 0.00 57 1019.4
20210225032300 62 0.0 1.0 0.00 0.00 0.00 57 1019.3
20210225031656 62 0.0 2.0 0.00 0.00 0.00 56 1019.2
20210225031051 62 0.0 3.0 0.00 0.00 0.00 56 1018.9
20210225030448 62 0.0 3.0 0.00 0.00 0.00 55 1018.9
20210225025843 63 0.0 2.0 0.00 0.00 0.00 55 1018.9
20210225025240 63 0.0 2.0 0.00 0.00 0.00 54 1018.8
20210225024637 63 0.0 2.0 0.00 0.00 0.00 54 1018.8
20210225024038 64 0.0 3.0 0.00 0.00 0.00 53 1018.6
20210225023437 64 0.0 6.0 0.00 0.00 0.00 52 1018.6
20210225022941 64 1.0 6.0 0.00 0.00 0.00 52 1018.6
20210225022231 64 0.0 4.0 0.00 0.00 0.00 51 1018.4
20210225021622 64 0.0 3.0 0.00 0.00 0.00 50 1018.3
20210225021034 64 0.0 2.0 0.00 0.00 0.00 50 1018.1
20210225020416 64 0.0 2.0 0.00 0.00 0.00 50 1018.0
20210225015813 64 0.0 1.0 0.00 0.00 0.00 50 1017.9
20210225015210 65 0.0 0.0 0.00 0.00 0.00 50 1017.8
20210225014611 65 0.0 1.0 0.00 0.00 0.00 49 1017.6
20210225014017 65 0.0 1.0 0.00 0.00 0.00 48 1017.6
20210225013401 66 0.0 1.0 0.00 0.00 0.00 48 1017.4
20210225013113 66 0.0 1.0 0.00 0.00 0.00 47 1017.3
20210225012155 67 0.0 1.0 0.00 0.00 0.00 47 1017.3
20210225011559 67 0.0 2.0 0.00 0.00 0.00 47 1017.2
20210225010949 67 0.0 0.0 0.00 0.00 0.00 46 1017.1
20210225010347 68 0.0 1.0 0.00 0.00 0.00 45 1017.0
20210225005745 69 0.0 2.0 0.00 0.00 0.00 44 1017.0
20210225005140 69 0.0 2.0 0.00 0.00 0.00 44 1016.9